FENGYUN 1C DEB

Satellite information

Favourite Embed

Satellite Type and Status

DEBRISIN ORBIT

Key statistics

Satellite FENGYUN 1C DEB at a glance.

Uptime

9669

Days in orbit

Revolutions

≈ 14.2

Per day

Orbit

SSO

Sun Synchronous Orbit

Inclination

99.7

Latest

Satellite identification and parameters

Extended collection of information and parameters for FENGYUN 1C DEB.

Object identification

Identified? True

Debris? True

Object name: FENGYUN 1C DEB

International designator: 1999-025ERE

Object number (NORAD): 38157

Object ID (CCSDS): 38157

Country: PEOPLES REPUBLIC OF CHINA (PRC)

Current information (Y/N): Y

RCS size: SMALL

Orbital parameters

Period: 101.303 minutes

Inclination: 99.6532 deg

SMA: 7198.517 km

Apoapsis: 1017.299 km

Periapsis: 623.466 km

RAAN: 203.5751 deg

Eccentricy: 0.02735516

Argument of periapsis: 243.1556 deg

Mean anomaly: 114.1412 deg

Mean motion: 14.21471574 rev/day

Mean motion (dot): 0.00003058 rev/day2

B* drag term: 0.00097452432 1/REarth

Two-line elements (TLE)

Creation date: Oct. 28, 2025, 2:18 a.m.

Reference frame: TEME

Reference center: EARTH

Epoch: Oct. 27, 2025, 10:57 p.m. UTC

TLE line 0: 0 FENGYUN 1C DEB

TLE line 1: 1 38157U 99025ERE 25300.95664068 .00003058 00000-0 97452-3 0 9999

TLE line 2: 2 38157 99.6532 203.5751 0273552 243.1556 114.1412 14.21471574755976

Live tracking on map

Real-time ground track for satellite FENGYUN 1C DEB.

In-orbit conjunctions

A list of the most updated potential collisions computed for object FENGYUN 1C DEB.

Target Orbit TCA Probability of collision Miss distance Type
SL-14 R/B LEO 2025-04-15 04:58:52 0.0002000038 203.0 (m) ROCKET BODY
COSMOS 1349 LEO 2025-03-15 12:47:02 0.0001379428 204.0 (m) PAYLOAD
SL-8 R/B LEO 2025-02-07 13:28:22 0.0006284817 65.0 (m) ROCKET BODY

Associated space launch

Chinese polar orbiting meteorological satellite

FENGYUN 1C DEB was lifted into orbit during the mission ‘Long March 4B | Feng Yun 1C’, on board a Long March 4B space rocket.

The launch took place on May 10, 1999, 1:33 a.m. from Launch Complex 7.

For more information about the launch, click the button.

Launch to space Long March 4B | Feng Yun 1C
Long March 4B | Feng Yun 1C

Agency: N/A

Status: Launch Successful

Launch date: May 10, 1999, 1:33 a.m. UTC

Rocket: Long March 4B

Launch pad: Launch Complex 7

Location: Taiyuan Satellite Launch Center, People's Republic of China

...

Latest news about this satellite

There are no fresh news available about this satellite. Check back as we update our databases every day.


Newsletter sign-up

Weekly statistics, charts and insights to help you stay on top of the space industry.